Station ATGM1 - 8413320 - Bar Harbor, ME Image indicating link to RSS feed of recent meteorological observations for station ATGM1


Conditions at ATGM1 as of
(8:18 am EDT)
1218 GMT on 06/24/2024:
     

Click on the graph icon in the table below to see a time series plot of the last five days of that observation.

5-day plot - Wind Direction Wind Direction (WDIR): SW ( 220 deg true )
5-day plot - Wind Speed Wind Speed (WSPD): 1.9 kts
5-day plot - Wind Gust Wind Gust (GST): 9.9 kts
5-day plot - Atmospheric Pressure Atmospheric Pressure (PRES):29.42 in
5-day plot - Air Temperature Air Temperature (ATMP): 74.7 °F
5-day plot - Water Temperature Water Temperature (WTMP): 51.4 °F
5-day plot - Wind Speed at 10 Meters Wind Speed at 10 meters (WSPD10M): 1.9 kts
5-day plot - Wind Speed at 20 Meters Wind Speed at 20 meters (WSPD20M): 1.9 kts
5-day plot -  Wind Speed, Wind Gust and Atmospheric Pressure Combined plot of Wind Speed, Gust, and Air Pressure
NOS Water Level Observation Network Water Level
Previous observations
TIME
(EDT)
5-day plot - Wind Direction
WDIR
 
5-day plot - Wind Speed
WSPD
kts
5-day plot - Wind Gust
GST
kts
5-day plot - Wave Height
WVHT
ft
5-day plot - Dominant Wave Period
DPD
sec
5-day plot - Average Wave Period
APD
sec
5-day plot - Mean Wave Direction
MWD
 
5-day plot - Atmospheric Pressure
PRES
in
5-day plot - Pressure Tendency
PTDY
in
5-day plot - Air Temperature
ATMP
°F
5-day plot - Water Temperature
WTMP
°F
5-day plot - Dew Point
DEWP
°F
5-day plot - Salinity
SAL
psu
5-day plot - Visibility
VIS
nmi
5-day plot - Tide (above MLLW)
TIDE
ft
2024-06-24 08:12 am W 6.0 12.0----29.42- 73.0 51.4----
2024-06-24 08:06 am W 9.9 15.0----29.41- 71.6 51.3----
2024-06-24 08:00 am W 8.9 18.1----29.41+0.01 71.2 51.3----
2024-06-24 07:54 am W 11.1 19.0----29.41- 70.7 51.3----
2024-06-24 07:48 am W 12.0 19.0----29.41- 70.5 51.3----
2024-06-24 07:42 am W 12.0 21.0----29.40- 70.5 51.3----
2024-06-24 07:36 am W 15.0 22.0----29.40- 70.5 51.3----
2024-06-24 07:30 am W 17.1 22.9----29.40- 70.5 51.3----
2024-06-24 07:24 am W 15.0 25.1----29.40- 70.3 51.3----
2024-06-24 07:18 am W 17.1 22.0----29.40- 70.3 51.3----
2024-06-24 07:12 am W 15.0 27.0----29.40- 70.2 51.1----
2024-06-24 07:06 am W 15.0 22.9----29.41- 70.5 51.1----
2024-06-24 07:00 am W 14.0 21.0----29.41+0.01 70.9 51.1----
2024-06-24 06:54 am W 11.1 19.0----29.41- 71.8 50.9----
2024-06-24 06:48 am W 11.1 19.0----29.41- 70.9 50.9----
2024-06-24 06:42 am W 13.0 21.0----29.41- 70.3 50.9----
2024-06-24 06:36 am W 15.0 21.0----29.40- 70.3 50.9----
2024-06-24 06:30 am W 14.0 24.1----29.40- 70.3 50.7----
2024-06-24 06:24 am W 15.0 22.0----29.40- 70.2 50.7----
2024-06-24 06:18 am W 12.0 20.0----29.40- 69.3 50.7----
2024-06-24 06:12 am W 15.0 20.0----29.40- 68.5 50.5----
2024-06-24 06:06 am W 7.0 13.0----29.41- 69.1 50.5----
2024-06-24 06:00 am W 8.0 15.0----29.40+0.01 70.0 50.4----
2024-06-24 05:54 am W 12.0 18.1----29.40- 70.0 50.4----
2024-06-24 05:48 am W 9.9 15.9----29.39- 69.4 50.4----
2024-06-24 05:42 am W 8.9 17.1----29.39- 69.3 50.4----
2024-06-24 05:36 am W 8.0 13.0----29.39- 68.9 50.5----
2024-06-24 05:30 am W 8.9 15.0----29.40- 68.7 50.5----
2024-06-24 05:24 am W 8.9 14.0----29.39- 68.7 50.5----
2024-06-24 05:18 am W 11.1 17.1----29.39- 68.7 50.5----
2024-06-24 05:12 am W 11.1 15.9----29.40- 68.7 50.5----
2024-06-24 05:06 am W 9.9 15.0----29.39- 68.5 50.4----
2024-06-24 05:00 am W 11.1 19.0----29.40+0.00 69.1 50.4----
2024-06-24 04:54 am W 9.9 17.1----29.39- 69.3 50.4----
2024-06-24 04:48 am W 8.9 18.1----29.39- 69.4 50.4----
2024-06-24 04:42 am W 9.9 18.1----29.39- 69.4 50.4----
2024-06-24 04:36 am W 11.1 18.1----29.39- 69.6 50.4----
2024-06-24 04:30 am W 12.0 18.1----29.39- 69.8 50.4----
2024-06-24 04:24 am W 12.0 18.1----29.39- 70.3 50.4----
2024-06-24 04:18 am W 11.1 19.0----29.39- 70.7 50.5----
2024-06-24 04:12 am W 11.1 19.0----29.39- 70.5 50.5----
2024-06-24 04:06 am W 12.0 21.0----29.39- 70.5 50.5----
2024-06-24 04:00 am W 11.1 20.0----29.39+0.00 70.7 50.5----
2024-06-24 03:54 am W 12.0 19.0----29.39- 71.2 50.5----
2024-06-24 03:48 am W 13.0 22.0----29.39- 71.6 50.5----
2024-06-24 03:42 am W 8.9 15.9----29.39- 71.4 50.5----
2024-06-24 03:36 am W 9.9 14.0----29.39- 71.2 50.4----
2024-06-24 03:30 am W 8.9 15.0----29.39- 70.9 50.4----
2024-06-24 03:24 am W 11.1 15.0----29.39- 70.9 50.2----
2024-06-24 03:18 am W 11.1 17.1----29.39- 70.5 50.2----
2024-06-24 03:12 am W 11.1 18.1----29.39- 70.3 50.2----
2024-06-24 03:06 am W 11.1 17.1----29.39- 70.3 50.2----
2024-06-24 03:00 am W 8.9 15.0----29.39-0.02 69.8 50.2----
2024-06-24 02:54 am W 9.9 14.0----29.40- 69.6 50.2----
2024-06-24 02:48 am W 7.0 13.0----29.39- 69.6 50.0----
2024-06-24 02:42 am W 9.9 15.0----29.40- 70.2 50.0----
2024-06-24 02:36 am W 8.9 14.0----29.40- 70.2 50.0----
2024-06-24 02:30 am W 8.0 15.9----29.40- 70.3 49.8----
2024-06-24 02:24 am W 12.0 18.1----29.40- 70.5 49.8----
2024-06-24 02:18 am W 12.0 22.9----29.40- 70.9 49.8----
2024-06-24 02:12 am W 12.0 21.0----29.39- 70.7 49.8----
2024-06-24 02:06 am W 12.0 20.0----29.39- 70.7 49.6----
2024-06-24 02:00 am W 18.1 25.1----29.39-0.05 70.7 49.8----
2024-06-24 01:54 am W 13.0 20.0----29.39- 70.3 50.0----
2024-06-24 01:48 am W 12.0 25.1----29.40- 70.5 50.0----
2024-06-24 01:42 am W 12.0 22.0----29.39- 70.9 50.0----
2024-06-24 01:36 am W 13.0 21.0----29.39- 70.9 50.0----
2024-06-24 01:30 am W 14.0 22.9----29.39- 71.1 50.0----
2024-06-24 01:24 am W 12.0 24.1----29.39- 70.9 50.0----
2024-06-24 01:18 am W 13.0 24.1----29.39- 70.7 50.0----
2024-06-24 01:12 am W 13.0 21.0----29.39- 70.5 50.0----
2024-06-24 01:06 am W 15.0 27.0----29.39- 70.7 49.8----
2024-06-24 01:00 am W 14.0 27.0----29.39-0.07 70.9 50.0----
2024-06-24 12:54 am W 15.0 28.9----29.39- 70.5 50.0----
2024-06-24 12:48 amWSW 15.9 27.0----29.39- 70.9 49.8----
2024-06-24 12:42 am W 18.1 24.1----29.39- 70.7 50.0----
2024-06-24 12:36 am W 12.0 22.0----29.39- 70.3 50.0----
2024-06-24 12:30 am W 15.9 24.1----29.40- 70.2 50.4----
2024-06-24 12:24 am W 14.0 21.0----29.40- 69.4 50.5----
2024-06-24 12:18 am W 13.0 22.9----29.41- 69.1 50.5----
2024-06-24 12:12 am W 14.0 22.9----29.41- 68.9 50.7----
2024-06-24 12:06 am W 15.0 22.0----29.42- 69.3 50.9----
2024-06-24 12:00 am W 15.0 22.0----29.42-0.04 68.7 50.9----
2024-06-23 11:54 pmWSW 14.0 22.9----29.42- 68.4 50.5----
2024-06-23 11:48 pm W 12.0 22.0----29.43-- 50.4----
2024-06-23 11:42 pm W 14.0 27.0----29.42-- 50.0----
2024-06-23 11:36 pm W 15.0 26.0----29.44-- 49.5----
2024-06-23 11:30 pm W 13.0 22.0----29.44- 68.4 49.3----
2024-06-23 11:24 pm W 15.0 25.1----29.44- 68.5 49.1----
2024-06-23 11:18 pm W 9.9 19.0----29.44- 68.4 49.1----
2024-06-23 11:12 pm W 15.0 25.1----29.44- 68.9 49.1----
2024-06-23 11:06 pm W 15.9 25.1----29.44- 70.7 49.1----
2024-06-23 11:00 pm W 14.0 22.0----29.44-0.03 71.1 49.1----
2024-06-23 10:54 pm W 13.0 21.0----29.43- 70.3 49.1----
2024-06-23 10:48 pmWSW 12.0 15.9----29.43- 68.7 49.3----
2024-06-23 10:42 pm W 9.9 17.1----29.43- 67.8 49.5----
2024-06-23 10:36 pm W 9.9 17.1----29.44- 67.3 49.5----
2024-06-23 10:30 pmWSW 12.0 18.1----29.43- 67.5 49.6----
2024-06-23 10:24 pm W 8.9 15.9----29.45- 66.7 49.8----
2024-06-23 10:18 pm W 11.1 22.0----29.45- 66.9 50.0----
2024-06-23 10:12 pm W 18.1 32.1----29.45- 67.8 50.2----
2024-06-23 10:06 pm W 20.0 32.1----29.46- 67.8 50.5----
2024-06-23 10:00 pmWSW 18.1 25.1----29.46-0.04 66.9 50.5----
2024-06-23 09:54 pm W 12.0 22.0----29.45- 66.7 50.5----
2024-06-23 09:48 pm W 15.0 27.0----29.46-- 50.9----
2024-06-23 09:42 pm W 17.1 28.0----29.46-- 51.1----
2024-06-23 09:36 pm W 17.1 28.9----29.46-- 51.3----
2024-06-23 09:30 pm W 14.0 28.9----29.44-------
2024-06-23 09:24 pm W 18.1 28.0----29.44-------
2024-06-23 09:18 pm W 15.0 24.1----29.44- 70.2 51.8----
2024-06-23 09:12 pm W 15.0 22.0----29.44- 69.6 52.2----
2024-06-23 09:06 pm W 14.0 26.0----29.45- 70.0 52.2----
2024-06-23 09:00 pm W 15.0 25.1----29.45-0.04 70.0 52.2----
2024-06-23 08:54 pm W 18.1 27.0----29.46- 70.5 52.5----
2024-06-23 08:48 pm W 13.0 27.0----29.45- 71.4 53.2----
2024-06-23 08:42 pm W 15.9 24.1----29.45- 72.0 53.4----
2024-06-23 08:36 pm W 15.9 27.0----29.44- 71.4 54.0----
2024-06-23 08:30 pm W 17.1 25.1----29.45- 70.7 54.3----
2024-06-23 08:24 pm W 13.0 24.1----29.45- 69.6 54.3----
2024-06-23 08:18 pm W 13.0 25.1----29.45- 69.1 54.3----
2024-06-23 08:12 pm W 15.0 25.1----29.46- 69.4 54.3----
2024-06-23 08:06 pm W 13.0 22.9----29.46- 68.5 54.3----
2024-06-23 08:00 pm W 14.0 22.0----29.47-0.07 68.7 54.3----
2024-06-23 07:54 pm W 12.0 22.9----29.47- 69.6 54.3----
2024-06-23 07:48 pm W 14.0 20.0----29.47- 69.3 54.3----
2024-06-23 07:42 pm W 12.0 19.0----29.47- 68.7 54.3----
2024-06-23 07:36 pm W 15.0 21.0----29.48- 68.0 54.3----
2024-06-23 07:30 pm W 12.0 20.0----29.49- 67.5 54.3----
2024-06-23 07:24 pm W 9.9 20.0----29.50- 67.1 54.3----
2024-06-23 07:18 pm W 11.1 18.1----29.50-- 54.3----
2024-06-23 07:12 pm W 12.0 19.0----29.50-- 54.5----
2024-06-23 07:06 pm W 8.9 18.1----29.50-- 54.5----
2024-06-23 07:00 pm W 11.1 20.0----29.50-0.07------
2024-06-23 06:54 pm W 9.9 18.1----29.49-------
2024-06-23 06:48 pm W 12.0 19.0----29.50- 67.8 54.5----
2024-06-23 06:42 pm W 11.1 19.0----29.49- 68.5 54.5----
2024-06-23 06:36 pm W 13.0 22.9----29.49- 68.7 54.7----
2024-06-23 06:30 pmWSW 11.1 21.0----29.49- 68.7 54.7----
2024-06-23 06:24 pm W 9.9 20.0----29.50- 68.7 54.9----
2024-06-23 06:18 pmWSW 11.1 20.0----29.49-- 55.0----
2024-06-23 06:12 pm W 11.1 21.0----29.50-- 55.0----
2024-06-23 06:06 pmWSW 13.0 20.0----29.50-- 55.0----
2024-06-23 06:00 pm W 14.0 19.0----29.50-0.12 69.3 55.2----
2024-06-23 05:54 pmWSW 9.9 19.0----29.49- 69.1 55.4----
2024-06-23 05:48 pm W 13.0 21.0----29.50- 68.2 55.4----
2024-06-23 05:42 pm W 8.9 20.0----29.51- 67.8 55.4----
2024-06-23 05:36 pm W 8.9 17.1----29.52- 67.3 55.4----
2024-06-23 05:30 pm W 11.1 19.0----29.52- 67.5 55.4----
2024-06-23 05:24 pm W 13.0 21.0----29.52- 68.2 55.2----
2024-06-23 05:18 pmWSW 8.9 21.0----29.52- 68.2 55.2----
2024-06-23 05:12 pm W 11.1 19.0----29.52- 67.8 55.0----
2024-06-23 05:06 pm W 9.9 15.9----29.54- 68.2 54.9----
2024-06-23 05:00 pm W 12.0 22.0----29.54-0.13 67.8 54.9----
2024-06-23 04:54 pm W 8.0 18.1----29.54- 68.0 54.9----
2024-06-23 04:48 pm W 8.9 20.0----29.54- 67.8 54.9----
2024-06-23 04:42 pm W 5.1 11.1----29.54- 68.0 54.9----
2024-06-23 04:36 pmWSW 8.0 15.0----29.54- 67.8 54.9----
2024-06-23 04:30 pmWSW 8.0 15.0----29.55- 67.6 54.9----
2024-06-23 04:24 pmWSW 2.9 12.0----29.56- 68.0 55.0----
2024-06-23 04:18 pm SW 4.1 9.9----29.56- 68.0 55.0----
2024-06-23 04:12 pm SW 8.0 15.0----29.56- 68.0 55.0----
2024-06-23 04:06 pmSSW 5.1 15.0----29.57- 67.5 55.0----
2024-06-23 04:00 pm SW 5.1 15.0----29.57-0.14 66.6 55.2----
2024-06-23 03:54 pmSSW 5.1 15.0----29.57- 66.7 55.2----
2024-06-23 03:48 pmSSW 6.0 12.0----29.58- 66.0 55.2----
2024-06-23 03:42 pm S 6.0 13.0----29.58- 65.5 55.2----
2024-06-23 03:36 pm S 5.1 11.1----29.59- 65.5 55.2----
2024-06-23 03:30 pmSSW 8.0 13.0----29.59- 64.2 55.4----
2024-06-23 03:24 pmSSE 7.0 12.0----29.59- 63.0 55.4----
2024-06-23 03:18 pm S 6.0 9.9----29.60- 63.0 55.4----
2024-06-23 03:12 pmSSE 6.0 12.0----29.61- 60.4 55.4----
2024-06-23 03:06 pmSSE 8.0 14.0----29.62- 59.7 55.4----
2024-06-23 03:00 pm SE 6.0 8.0----29.62-0.13 59.2 55.4----
2024-06-23 02:54 pmSSE 7.0 12.0----29.62- 59.5 55.4----
2024-06-23 02:48 pmSSE 8.0 15.9----29.62- 60.3 55.4----
2024-06-23 02:42 pm S 6.0 13.0----29.63- 59.7 55.6----
2024-06-23 02:36 pmSSE 9.9 15.9----29.62- 59.5 55.6----
2024-06-23 02:30 pm S 8.0 15.0----29.63- 59.0 55.6----
2024-06-23 02:24 pmSSE 4.1 6.0----29.65- 58.8 55.6----
2024-06-23 02:18 pm- 0.0 5.1----29.65- 58.6 55.8----
2024-06-23 02:12 pmSSE 2.9 7.0----29.65- 58.6 55.8----
2024-06-23 02:06 pmSSE 5.1 7.0----29.66- 58.1 55.8----
2024-06-23 02:00 pmSSE 1.9 6.0----29.66-0.14 58.3 55.8----
2024-06-23 01:54 pm SE 2.9 5.1----29.67- 58.3 55.8----
2024-06-23 01:48 pm NW 1.0 7.0----29.67- 57.9 55.8----
2024-06-23 01:42 pmSSE 5.1 9.9----29.67- 57.6 55.8----
2024-06-23 01:36 pm S 7.0 13.0----29.68- 57.6 55.9----
2024-06-23 01:30 pmSSE 9.9 15.0----29.67- 57.6 55.9----
2024-06-23 01:24 pmSSE 8.9 17.1----29.68- 57.2 55.8----
2024-06-23 01:18 pmSSE 11.1 15.0----29.69- 56.1 55.8----
2024-06-23 01:12 pmSSE 8.9 15.9----29.69- 56.7 55.8----
2024-06-23 01:06 pmSSE 12.0 15.9----29.69- 56.7 55.4----
2024-06-23 01:00 pmESE 5.1 8.9----29.71- 56.5 55.0----
2024-06-23 12:54 pmESE 5.1 13.0----29.72- 55.9 54.7----
2024-06-23 12:48 pmSSE 12.0 17.1----29.72- 55.4 54.7----
2024-06-23 12:42 pmSSE 12.0 17.1----29.72- 55.2 54.7----
2024-06-23 12:36 pmSSE 13.0 18.1----29.72- 55.0 54.7----
2024-06-23 12:30 pmSSE 11.1 18.1----29.72- 55.0 54.7----
2024-06-23 12:24 pmSSE 15.9 21.0----29.71- 54.5 54.7----
2024-06-23 12:18 pmSSE 15.0 22.0----29.72- 54.7 54.7----
2024-06-23 12:12 pm S 7.0 13.0----29.76- 54.9 54.7----
2024-06-23 12:06 pm S 8.0 14.0----29.75- 54.5 54.7----
2024-06-23 12:00 pmSSE 11.1 14.0----29.75- 54.5 54.7----
2024-06-23 11:54 amSSE 8.0 13.0----29.76- 54.7 54.5----
2024-06-23 11:48 am S 8.0 11.1----29.77- 54.9 54.3----
2024-06-23 11:42 am S 2.9 9.9----29.78- 55.0 54.1----
2024-06-23 11:36 amSSE 6.0 11.1----29.77- 54.7 54.1----
2024-06-23 11:30 amSSE 8.0 11.1----29.78- 54.7 54.1----
2024-06-23 11:24 amSSE 6.0 8.0----29.79- 54.7 54.1----
2024-06-23 11:18 amSSE 5.1 13.0----29.79-- 54.1----
2024-06-23 11:12 amSSE 8.9 11.1----29.79-- 54.3----
2024-06-23 11:06 amSSE 8.9 9.9----29.80-- 54.9----
2024-06-23 11:00 amSSE 8.0 11.1----29.80-0.07------
2024-06-23 10:54 am SE 9.9 12.0----29.80-------
2024-06-23 10:48 amSSE 11.1 13.0----29.81- 54.9 55.0----
2024-06-23 10:42 am SE 8.9 12.0----29.82- 54.7 54.7----
2024-06-23 10:36 amSSE 9.9 11.1----29.83- 54.9 54.7----
2024-06-23 10:30 amSSE 8.0 9.9----29.83- 54.9 55.0----
2024-06-23 10:24 amSSE 8.0 9.9----29.83- 54.9 55.2----
2024-06-23 10:18 amSSE 7.0 11.1----29.83-- 55.6----
2024-06-23 10:12 amSSE 5.1 9.9----29.83-- 55.9----
2024-06-23 10:06 amSSE 7.0 11.1----29.83-- 55.9----
2024-06-23 10:00 am S 5.1 8.9------ 54.9 56.1----
2024-06-23 09:54 amSSE 8.0 12.0------ 54.7 56.1----
2024-06-23 09:48 amSSE 8.9 12.0----29.83- 54.9 56.3----
2024-06-23 09:42 am S 6.0 12.0----29.83- 55.0 56.3----
2024-06-23 09:36 amSSE 8.0 11.1----29.83- 55.0 56.5----
2024-06-23 09:30 amSSE 7.0 11.1----29.84-- 56.7----
2024-06-23 09:24 amSSE 7.0 8.9----29.84-- 56.8----
2024-06-23 09:18 amSSE 6.0 11.1----29.85- 55.4 57.0----
2024-06-23 09:12 amSSE 7.0 11.1----29.86- 55.4 57.2----
2024-06-23 09:06 amSSE 6.0 9.9----29.86- 55.6 57.2----
2024-06-23 09:00 amSSE 8.0 9.9------- 57.2----
2024-06-23 08:54 amSSE 5.1 8.9------- 56.7----
2024-06-23 08:48 amSSE 6.0 8.0----29.87- 55.6 56.3----
2024-06-23 08:42 amSSE 7.0 9.9----29.86- 55.6 55.9----
2024-06-23 08:36 amSSE 7.0 9.9----29.86- 55.4 56.1----
2024-06-23 08:30 amSSE 6.0 8.0----29.87- 55.6 56.8----
2024-06-23 08:24 am S 2.9 7.0----29.88- 55.8 56.8----
2024-06-23 08:18 amSSE 6.0 7.0----29.87- 55.6 57.0----
2024-06-23 08:12 amSSE 4.1 5.1----29.87- 55.8 57.2----
2024-06-23 08:06 amSSE 4.1 8.0----29.87- 55.4 57.6----
2024-06-23 08:00 amSSE 5.1 7.0----29.87-0.04- 57.9----
2024-06-23 07:54 amSSE 5.1 8.9----29.87-- 57.9----